This demonstration page uses our WeatherBlox Daily Observations layout. Learn more.

Left ArrowRight Arrow

Hourly Observations for July 2, 2018

Temp ( °F °C ) Dew Point ( °F °C ) Humidity (%) Winds ( mph kmh ) Pressure ( in mb ) Visibility ( mi km ) Precip ( " mm )
12:15 am 00:15 Clear 66 19 61 16.3 84 84 SSE 6 9 29.97 1015 10 16 N/A
12:35 am 00:35 Clear 66 18.9 61 16.1 84 84 SSE 7 11 29.97 1015 10 16 N/A
12:55 am 00:55 Clear 67 19.2 61 16 82 82 SE 6 9 29.97 1015 10 16 N/A
1:15 am 01:15 Clear 66 19 60 15.8 82 82 SE 6 9 29.97 1015 10 16 N/A
1:35 am 01:35 Clear 66 19 60 15.7 81 81 SE 6 9 29.97 1015 10 16 N/A
1:55 am 01:55 Clear 65 18.6 60 15.5 82 82 SE 6 9 29.97 1015 10 16 N/A
2:15 am 02:15 Clear 65 18.5 60 15.4 82 82 SE 6 9 29.97 1015 10 16 N/A
2:35 am 02:35 Clear 65 18.3 60 15.3 83 83 SE 7 11 29.97 1015 10 16 N/A
2:55 am 02:55 Clear 64 18 59 15.1 83 83 SE 6 9 29.97 1015 10 16 N/A
3:15 am 03:15 Clear 64 18 59 15.1 83 83 SE 7 11 29.97 1015 10 16 N/A
3:35 am 03:35 Clear 64 17.6 59 15 85 85 SSE 6 9 29.97 1015 10 16 N/A
3:55 am 03:55 Clear 64 17.5 59 15 85 85 SSE 8 13 29.97 1015 10 16 N/A
4:15 am 04:15 Clear 64 17.6 59 15 85 85 SSE 9 15 29.97 1015 10 16 N/A
4:35 am 04:35 Clear 63 17.3 59 15 86 86 SSE 6 9 29.97 1015 10 16 N/A
4:55 am 04:55 Clear 63 17 59 15 88 88 SSE 7 11 29.97 1015 10 16 N/A
5:15 am 05:15 Clear 62 16.9 59 15 89 89 SSE 8 13 29.97 1015 10 16 N/A
5:35 am 05:35 Clear 62 16.8 59 15 89 89 SSE 7 11 29.97 1015 10 16 N/A
5:55 am 05:55 Clear 64 17.5 59 15.2 86 86 SSE 9 15 29.97 1015 10 16 N/A
6:15 am 06:15 Sunny 62 16.7 59 15 90 90 SSE 7 11 30.00 1016 10 16 N/A
6:35 am 06:35 Sunny 63 17 59 15 88 88 SSE 8 13 29.97 1015 10 16 N/A
6:55 am 06:55 Sunny 64 17.7 59 15.2 85 85 SSE 7 11 29.97 1015 10 16 N/A
7:15 am 07:15 Sunny 65 18.5 60 15.5 83 83 SSE 8 13 29.97 1015 10 16 N/A
7:35 am 07:35 Sunny 66 19 60 15.8 82 82 SSE 8 13 29.97 1015 10 16 N/A
7:55 am 07:55 Sunny 67 19.7 61 16.3 81 81 SSE 7 11 29.97 1015 10 16 N/A
8:15 am 08:15 Sunny 69 20.3 62 16.9 81 81 SSE 6 9 29.94 1014 10 16 N/A
8:35 am 08:35 Sunny 70 21.3 64 17.5 79 79 SSE 8 13 29.94 1014 10 16 N/A
8:55 am 08:55 Sunny 72 22 64 18 78 78 S 8 13 29.94 1014 10 16 N/A
9:15 am 09:15 Sunny 73 22.9 65 18.3 75 75 S 10 17 29.94 1014 10 16 N/A
9:35 am 09:35 Sunny 75 23.7 64 17.9 70 70 S 16 26 29.91 1013 10 16 N/A
9:55 am 09:55 Sunny 76 24.2 65 18.5 71 71 S 14 22 29.91 1013 10 16 N/A
10:15 am 10:15 Sunny 77 24.9 67 19.7 73 73 S 13 20 29.91 1013 10 16 N/A
10:35 am 10:35 Sunny 78 25.7 69 20.3 72 72 S 17 28 29.88 1012 10 16 N/A
10:55 am 10:55 Sunny 79 26 68 20.2 70 70 S 17 28 29.88 1012 10 16 N/A
11:15 am 11:15 Partly Cloudy 80 26.5 69 20.6 70 70 S 15 24 29.88 1012 10 16 N/A
11:35 am 11:35 Partly Cloudy 81 27 70 21.1 70 70 SSE 16 26 29.85 1011 10 16 N/A
11:55 am 11:55 Mostly Cloudy 80 26.7 70 21.2 72 72 S 14 22 29.88 1012 10 16 N/A
12:15 pm 12:15 Cloudy 82 27.6 71 21.9 71 71 S 17 28 29.85 1011 10 16 N/A
12:35 pm 12:35 Mostly Cloudy 83 28.1 72 22.1 70 70 S 15 24 29.85 1011 10 16 N/A
12:55 pm 12:55 Cloudy 83 28.1 72 22.3 71 71 S 16 26 29.85 1011 10 16 N/A
1:15 pm 13:15 Cloudy 83 28.1 72 22.3 71 71 S 16 26 29.83 1010 10 16 N/A
1:35 pm 13:35 Cloudy 84 28.9 73 22.6 69 69 S 14 22 29.83 1010 10 16 N/A
1:55 pm 13:55 Cloudy 84 28.9 73 22.5 68 68 S 14 22 29.83 1010 10 16 N/A
2:15 pm 14:15 Mostly Cloudy 85 29.2 74 23.3 71 71 S 14 22 29.83 1010 10 16 N/A
2:35 pm 14:35 Mostly Cloudy 85 29.5 73 23 68 68 SSE 15 24 29.83 1010 10 16 N/A
2:55 pm 14:55 Mostly Cloudy 85 29.5 74 23.1 68 68 S 15 24 29.80 1009 10 16 N/A
3:15 pm 15:15 Mostly Cloudy 86 29.8 74 23.6 69 69 SSE 18 30 29.80 1009 10 16 N/A
3:35 pm 15:35 Partly Cloudy 87 30.6 74 23.4 65 65 S 17 28 29.77 1008 10 16 N/A
3:55 pm 15:55 Partly Cloudy 87 30.4 74 23.5 67 67 SSE 21 33 29.74 1007 10 16 N/A
4:15 pm 16:15 Mostly Cloudy 87 30.4 74 23.3 66 66 S 18 30 29.74 1007 10 16 N/A
4:35 pm 16:35 Partly Cloudy 88 30.9 74 23.6 65 65 SSE 18 30 29.74 1007 10 16 N/A
4:55 pm 16:55 Partly Cloudy 88 30.9 74 23.3 64 64 SSE 22 35 29.74 1007 10 16 N/A
5:15 pm 17:15 Partly Cloudy 88 30.9 74 23.1 63 63 S 18 30 29.74 1007 10 16 N/A
5:35 pm 17:35 Partly Cloudy 88 31.1 74 23.1 62 62 SSE 17 28 29.74 1007 10 16 N/A
5:55 pm 17:55 Partly Cloudy 86 30.2 74 23.1 66 66 S 16 26 29.71 1006 10 16 N/A
6:15 pm 18:15 Mostly Cloudy 86 30 73 22.7 65 65 SSE 18 30 29.71 1006 10 16 N/A
6:35 pm 18:35 Mostly Cloudy 85 29.7 73 22.8 66 66 S 16 26 29.71 1006 10 16 N/A
6:55 pm 18:55 Mostly Cloudy 85 29.7 73 22.7 66 66 S 15 24 29.74 1007 10 16 N/A
7:15 pm 19:15 Mostly Cloudy 86 29.9 73 22.9 66 66 SSE 13 20 29.74 1007 10 16 N/A
7:35 pm 19:35 Sunny 85 29.5 73 23 68 68 SSE 10 17 29.77 1008 10 16 N/A
7:55 pm 19:55 Sunny 84 29 74 23.1 71 71 SSE 13 20 29.77 1008 10 16 N/A
8:15 pm 20:15 Partly Cloudy 83 28.6 73 22.7 70 70 SSE 12 19 29.77 1008 10 16 N/A
8:35 pm 20:35 Sunny 83 28.5 73 22.7 71 71 SE 10 17 29.77 1008 10 16 N/A
8:55 pm 20:55 Sunny 83 28.4 73 22.5 70 70 SE 13 20 29.77 1008 10 16 N/A
9:15 pm 21:15 Clear 82 28 72 22.3 71 71 SE 13 20 29.77 1008 10 16 N/A
9:35 pm 21:35 Clear 82 27.7 72 22.3 72 72 SSE 15 24 29.77 1008 10 16 N/A
9:55 pm 21:55 Clear 82 27.5 72 22.2 73 73 SSE 20 31 29.77 1008 10 16 N/A
10:15 pm 22:15 Clear 82 27.5 72 22.1 72 72 SSE 16 26 29.77 1008 10 16 N/A
10:35 pm 22:35 Clear 81 27.3 72 22 73 73 SSE 18 30 29.77 1008 10 16 N/A
10:55 pm 22:55 Clear 81 27.3 72 22 73 73 SSE 18 30 29.77 1008 10 16 N/A
11:15 pm 23:15 Clear 81 27 72 22 74 74 SSE 15 24 29.77 1008 10 16 N/A
11:35 pm 23:35 Clear 80 26.6 72 22 76 76 SSE 14 22 29.77 1008 10 16 N/A
11:55 pm 23:55 Clear 80 26.5 72 22 76 76 SSE 15 24 29.77 1008 10 16 N/A

Powered by AerisWeather